Hourly Data Report for May 29, 2012

All times are specified in Local Standard Time (LST). Add 1 hour to adjust for Daylight Saving Time where and when it is observed.

ST. JOHN'S INTL A
NEWFOUNDLAND

47°37'07.000" N
52°45'09.000" W
140.50 m
8403505
71801
YYT

Download Data

Hourly Data (May 2012)
Hourly Data Report for May 29, 2012
Temp Definition
°C
Dew Point Temp Definition
°C
Rel Hum Definition
%
Wind Dir Definition
10's deg

Wind Spd Definition
km/h
Visibility Definition
km
Stn Press Definition
kPa
Hmdx Definition


Wind Chill Definition


Weather Definition


TIME
00:30 Legend Double Dagger 0.8 0.7 99 36 14 10.0 99.64     LegendNANA
01:30 Legend Double Dagger -0.3 -1.2 94 35 11 10.0 99.65   -4 LegendNANA
02:30 Legend Double Dagger -0.1 -1.1 93 34 15 10.0 99.66   -5 Mainly Clear
03:30 Legend Double Dagger -1.3 -2.3 93 31 12 10.0 99.59   -5 LegendNANA
04:30 Legend Double Dagger -0.3 -2.1 88 33 17 10.0 99.61   -5 LegendNANA
05:30 Legend Double Dagger 0.7 -1.1 88 33 22 10.0 99.61     Mainly Clear
06:30 Legend Double Dagger 1.8 -0.5 85 34 23 10.0 99.60     LegendNANA
07:30 Legend Double Dagger 2.3 -0.6 81 34 29 10.0 99.58     LegendNANA
08:30 Legend Double Dagger 2.6 -0.7 79 33 37 4.8 99.55     Snow Pellets
09:30 Legend Double Dagger 2.4 -0.5 81 32 40 10.0 99.52     Snow Showers
10:30 Legend Double Dagger 2.2 0.9 91 33 36 10.0 99.50     LegendNANA
11:30 Legend Double Dagger 4.9 -0.5 68 33 46 10.0 99.42     Mostly Cloudy
12:30 Legend Double Dagger 5.4 -1.7 60 33 42 10.0 99.37     LegendNANA
13:30 Legend Double Dagger 5.7 -1.9 58 33 52 10.0 99.32     LegendNANA
14:30 Legend Double Dagger 5.2 -1.9 60 33 53 10.0 99.30     Mainly Clear
15:30 Legend Double Dagger 4.2 -1.6 66 32 49 10.0 99.29     LegendNANA
16:30 Legend Double Dagger 3.6 -1.4 70 32 42 10.0 99.21     LegendNANA
17:30 Legend Double Dagger 2.8 -1.0 76 32 50 10.0 99.25     Rain Showers
18:30 Legend Double Dagger 2.8 -0.1 81 32 47 10.0 99.28     Rain Showers
19:30 Legend Double Dagger 2.4 1.2 92 32 48 8.1 99.27     Rain Showers,Fog
20:30 Legend Double Dagger 2.8 1.2 89 32 44 10.0 99.32     Drizzle
21:30 Legend Double Dagger 3.2 1.6 89 32 33 10.0 99.31     Drizzle
22:30 Legend Double Dagger 3.0 2.1 94 32 35 6.4 99.29     Drizzle,Fog
23:30 Legend Double Dagger 3.0 2.6 97 34 28 3.2 99.24     Drizzle,Fog

Notes on Data Quality.

Legend

  • E = Estimated
  • M = Missing
  • NA = Not Available
  • ‡ = Partner data that is not subject to review by the National Climate Archives
Date modified: